Medford, OR

6:21 AM PDT on April 22, 2018 (GMT -0700)
Rogue Valley International-Medford

Weather History for KMFR - March, 2013

Change the Weather History Date:

Saturday, March 30, 2013

  Actual Average Record
Temperature  
Mean Temperature 61 °F 50 °F  
Max Temperature 80 °F 61 °F 86 °F (1911)
Min Temperature 42 °F 39 °F 23 °F (1936)
Degree Days  
Heating Degree Days 4 15  
Month to date heating degree days 467 503  
Since 1 July heating degree days 3542 3617  
Cooling Degree Days 0 0  
Month to date cooling degree days 0 0  
Year to date cooling degree days 0 0  
Growing Degree Days 12 (Base 50)    
Moisture  
Dew Point 43 °F    
Average Humidity 54    
Maximum Humidity 83    
Minimum Humidity 25    
Precipitation  
Precipitation T in 0.05 in 0.84 in (1994)
Month to date precipitation 0.30 1.66  
Year to date precipitation 1.75 6.10  
Snow  
Snow 0.00 in 0.00 in - ()
Month to date snowfall 0.0 0.5  
Since 1 July snowfall 1.7 4.1  
Snow Depth 0.00 in    
Sea Level Pressure  
Sea Level Pressure 30.03 in    
Wind  
Wind Speed 3 mph (WNW)    
Max Wind Speed 32 mph    
Max Gust Speed 38 mph    
Visibility 10 miles    
Events      
T = Trace of Precipitation, MM = Missing Value Source: NWS Daily Summary

Daily Weather History Graph

Daily Weather History Graph

Search for Another Location

Airport or City:

Astronomy

Mar. 30, 2013 Rise Set
Actual Time 6:56 AM PDT 7:35 PM PDT
Civil Twilight 6:28 AM PDT 8:03 PM PDT
Nautical Twilight 5:55 AM PDT 8:37 PM PDT
Astronomical Twilight 5:20 AM PDT 9:12 PM PDT
Moon 11:53 PM PDT (3/30) 8:52 AM PDT (3/30)
Length of Visible Light 13h 35m
Length of Day
12h 38m
Waning Gibbous, 85% of the Moon is Illuminated
Mar 30
Waning Gibbous
Apr 2
Last Quarter
Apr 10
New
Apr 18
First Quarter
Apr 25
Full

Hourly Weather History & Observations

Time (PDT) Temp. Windchill Dew Point Humidity Pressure Visibility Wind Dir Wind Speed Gust Speed Precip Events Conditions
12:53 AM 48.0 °F - 41.0 °F 77% 30.11 in 10.0 mi Calm Calm - N/A   Clear
1:53 AM 50.0 °F - 42.1 °F 74% 30.11 in 10.0 mi Calm Calm - N/A   Clear
2:53 AM 50.0 °F - 42.1 °F 74% 30.12 in 10.0 mi Calm Calm - N/A   Clear
3:53 AM 46.0 °F - 39.9 °F 79% 30.11 in 10.0 mi Calm Calm - N/A   Clear
4:53 AM 44.1 °F 42.5 °F 39.0 °F 82% 30.11 in 10.0 mi SE 3.5 mph - N/A   Clear
5:53 AM 44.1 °F - 39.0 °F 82% 30.11 in 10.0 mi Calm Calm - N/A   Clear
6:53 AM 44.1 °F - 39.0 °F 82% 30.11 in 10.0 mi Calm Calm - N/A   Clear
7:53 AM 44.1 °F - 39.9 °F 85% 30.12 in 10.0 mi Calm Calm - N/A   Clear
8:53 AM 48.9 °F - 41.0 °F 74% 30.12 in 10.0 mi Calm Calm - N/A   Clear
9:53 AM 52.0 °F - 42.1 °F 69% 30.11 in 10.0 mi Calm Calm - N/A   Clear
10:53 AM 55.9 °F - 42.1 °F 60% 30.10 in 10.0 mi Calm Calm - N/A   Clear
11:53 AM 63.0 °F - 43.0 °F 48% 30.07 in 10.0 mi Calm Calm - N/A   Clear
12:53 PM 66.9 °F - 44.1 °F 44% 30.04 in 10.0 mi East 3.5 mph - N/A   Clear
1:53 PM 72.0 °F - 42.1 °F 34% 30.01 in 10.0 mi NW 3.5 mph - N/A   Scattered Clouds
2:53 PM 75.0 °F - 39.9 °F 28% 29.96 in 10.0 mi NW 3.5 mph - N/A   Clear
3:53 PM 79.0 °F - 42.1 °F 27% 29.93 in 10.0 mi Variable 3.5 mph - N/A   Mostly Cloudy
4:53 PM 79.0 °F - 39.9 °F 25% 29.91 in 10.0 mi NW 5.8 mph - N/A   Clear
5:53 PM 75.9 °F - 48.0 °F 37% 29.91 in 10.0 mi NNE 4.6 mph - N/A   Scattered Clouds
6:25 PM 75.2 °F - 44.6 °F 34% 29.93 in 10.0 mi SSE 20.7 mph 31.1 mph N/A   Mostly Cloudy
6:53 PM 72.0 °F - 45.0 °F 38% 29.91 in 10.0 mi SW 12.7 mph - 0.00 in   Scattered Clouds
7:53 PM 68.0 °F - 48.0 °F 49% 29.93 in 10.0 mi WSW 3.5 mph - N/A   Overcast
8:53 PM 68.0 °F - 46.9 °F 47% 29.94 in 10.0 mi NW 10.4 mph - N/A   Mostly Cloudy
9:53 PM 66.0 °F - 48.0 °F 52% 29.94 in 10.0 mi NW 8.1 mph - N/A   Clear
10:53 PM 62.1 °F - 48.0 °F 60% 29.97 in 10.0 mi WNW 6.9 mph - N/A   Clear
11:53 PM 61.0 °F - 48.0 °F 62% 29.98 in 10.0 mi Calm Calm - N/A   Clear